Location: Bijele Vode
(45.2833°N, 16.2000°E)
Time: 07:23:30
(UTC+00:00)

Lacrosse 5 rocket - Pass Details

Date: 20 January 2021
Orbit: 465 x 630 km, 57.0° (Epoch: 04 March)

Event Time Altitude Azimuth Distance (km) Brightness Sun altitude
Exits shadow 05:17:10 16° 314° (NW) 1,391 2.8 -12.3°
Maximum altitude 05:20:11 78° 39° (NE) 513 1.2 -11.7°
Drops below altitude 10° 05:23:55 10° 127° (SE) 1,657 5.0 -11.1°
Sets 05:26:01 0° 128° (SE) 2,516 6.2 -10.8°
